This demonstration page uses our WeatherBlox Daily Observations layout. Learn more.

Left ArrowRight Arrow

Hourly Observations for August 13, 2015

Temp ( °F °C ) Dew Point ( °F °C ) Humidity (%) Winds ( mph kmh ) Pressure ( in mb ) Visibility ( mi km ) Precip ( " mm )
12:15 am 00:15 Clear 66 19 61 16 83 83 S 7 11 30.09 1019 10 16 0.00 0.00
12:35 am 00:35 Clear 66 19 61 16 83 83 S 8 13 30.09 1019 10 16 0.00 0.00
12:55 am 00:55 Clear 66 19 61 16 83 83 S 8 13 30.09 1019 10 16 0.00 0.00
1:15 am 01:15 Clear 66 19 61 16 83 83 S 9 15 30.09 1019 10 16 0.00 0.00
1:35 am 01:35 Clear 68 20 61 16 78 78 S 8 13 30.09 1019 10 16 0.00 0.00
1:55 am 01:55 Clear 66 19 61 16 83 83 S 9 15 30.09 1019 10 16 0.00 0.00
2:15 am 02:15 Clear 66 19 61 16 83 83 S 8 13 30.09 1019 10 16 0.00 0.00
2:35 am 02:35 Clear 66 19 61 16 83 83 S 7 11 30.06 1018 10 16 0.00 0.00
2:55 am 02:55 Clear 66 19 61 16 83 83 S 8 13 30.06 1018 10 16 0.00 0.00
3:15 am 03:15 Clear 66 19 61 16 83 83 SSW 8 13 30.06 1018 10 16 0.00 0.00
3:35 am 03:35 Clear 66 19 61 16 83 83 S 8 13 30.06 1018 10 16 0.00 0.00
3:55 am 03:55 Clear 66 19 61 16 83 83 SSW 8 13 30.06 1018 10 16 0.00 0.00
4:15 am 04:15 Clear 66 19 61 16 83 83 S 7 11 30.06 1018 10 16 0.00 0.00
4:35 am 04:35 Clear 64 18 61 16 88 88 SSW 7 11 30.06 1018 10 16 0.00 0.00
4:55 am 04:55 Clear 64 18 61 16 88 88 SSW 7 11 30.06 1018 10 16 0.00 0.00
5:15 am 05:15 Clear 64 18 61 16 88 88 SSW 9 15 30.06 1018 10 16 0.00 0.00
5:35 am 05:35 Clear 64 18 61 16 88 88 SSW 7 11 30.06 1018 10 16 0.00 0.00
5:55 am 05:55 Clear 64 18 59 15 83 83 S 7 11 30.06 1018 10 16 0.00 0.00
6:15 am 06:15 Clear 63 17 59 15 88 88 S 8 13 30.06 1018 10 16 0.00 0.00
6:35 am 06:35 Clear 63 17 59 15 88 88 S 7 11 30.06 1018 10 16 0.00 0.00
6:55 am 06:55 Sunny 63 17 59 15 88 88 SSW 8 13 30.06 1018 10 16 0.00 0.00
7:15 am 07:15 Sunny 63 17 59 15 88 88 S 8 13 30.06 1018 10 16 0.00 0.00
7:35 am 07:35 Sunny 64 18 61 16 88 88 S 7 11 30.09 1019 10 16 0.00 0.00
7:55 am 07:55 Sunny 64 18 61 16 88 88 S 8 13 30.09 1019 10 16 0.00 0.00
8:15 am 08:15 Sunny 66 19 61 16 83 83 S 8 13 30.09 1019 10 16 0.00 0.00
8:35 am 08:35 Sunny 68 20 61 16 78 78 S 9 15 30.09 1019 10 16 0.00 0.00
8:55 am 08:55 Sunny 70 21 63 17 78 78 S 9 15 30.06 1018 10 16 0.00 0.00
9:15 am 09:15 Sunny 72 22 63 17 73 73 S 13 20 30.06 1018 10 16 0.00 0.00
9:35 am 09:35 Sunny 73 23 63 17 69 69 SSW 13 20 30.06 1018 10 16 0.00 0.00
9:55 am 09:55 Sunny 73 23 63 17 69 69 SSW 16 26 30.06 1018 10 16 0.00 0.00
10:15 am 10:15 Sunny 75 24 63 17 65 65 SSW 14 22 30.06 1018 10 16 0.00 0.00
10:35 am 10:35 Partly Cloudy 77 25 63 17 61 61 SW 17 28 30.00 1016 10 16 0.00 0.00
10:55 am 10:55 Mostly Sunny 77 25 63 17 61 61 S 20 31 30.00 1016 10 16 0.00 0.00
11:15 am 11:15 Sunny 79 26 64 18 61 61 SSW 17 28 30.00 1016 10 16 0.00 0.00
11:35 am 11:35 Sunny 79 26 63 17 58 58 S 16 26 30.00 1016 10 16 0.00 0.00
11:55 am 11:55 Sunny 81 27 63 17 54 54 SSW 17 28 30.00 1016 10 16 0.00 0.00
12:15 pm 12:15 Sunny 81 27 63 17 54 54 SSW 20 31 30.00 1016 10 16 0.00 0.00
12:35 pm 12:35 Sunny 82 28 64 18 55 55 S 14 22 29.97 1015 10 16 0.00 0.00
12:55 pm 12:55 Sunny 82 28 64 18 55 55 SSW 20 31 29.97 1015 10 16 0.00 0.00
1:15 pm 13:15 Sunny 82 28 66 19 58 58 S 15 24 29.97 1015 10 16 0.00 0.00
1:35 pm 13:35 Sunny 82 28 64 18 55 55 S 15 24 29.97 1015 10 16 0.00 0.00
1:55 pm 13:55 Sunny 82 28 66 19 58 58 S 18 30 29.97 1015 10 16 0.00 0.00
2:15 pm 14:15 Sunny 82 28 64 18 55 55 S 16 26 29.97 1015 10 16 0.00 0.00
2:35 pm 14:35 Sunny 84 29 66 19 55 55 S 18 30 29.94 1014 10 16 0.00 0.00
2:55 pm 14:55 Sunny 84 29 66 19 55 55 S 15 24 29.94 1014 10 16 0.00 0.00
3:15 pm 15:15 Sunny 84 29 66 19 55 55 S 13 20 29.91 1013 10 16 0.00 0.00
3:35 pm 15:35 Sunny 84 29 66 19 55 55 S 15 24 29.91 1013 10 16 0.00 0.00
3:55 pm 15:55 Sunny 84 29 66 19 55 55 S 14 22 29.91 1013 10 16 0.00 0.00
4:15 pm 16:15 Sunny 84 29 66 19 55 55 S 14 22 29.91 1013 10 16 0.00 0.00
4:35 pm 16:35 Sunny 84 29 66 19 55 55 S 15 24 29.91 1013 10 16 0.00 0.00
4:55 pm 16:55 Sunny 84 29 66 19 55 55 S 13 20 29.91 1013 10 16 0.00 0.00
5:15 pm 17:15 Sunny 84 29 66 19 55 55 SSE 13 20 29.91 1013 10 16 0.00 0.00
5:35 pm 17:35 Sunny 84 29 66 19 55 55 SSE 15 24 29.91 1013 10 16 0.00 0.00
5:55 pm 17:55 Sunny 84 29 64 18 51 51 SSE 14 22 29.88 1012 10 16 0.00 0.00
6:15 pm 18:15 Sunny 84 29 64 18 51 51 SSE 13 20 29.88 1012 10 16 0.00 0.00
6:35 pm 18:35 Sunny 84 29 64 18 51 51 SSE 14 22 29.91 1013 10 16 0.00 0.00
6:55 pm 18:55 Sunny 82 28 64 18 55 55 SSE 9 15 29.91 1013 10 16 0.00 0.00
7:15 pm 19:15 Sunny 81 27 64 18 58 58 SE 8 13 29.94 1014 10 16 0.00 0.00
7:35 pm 19:35 Sunny 79 26 64 18 61 61 SE 9 15 29.94 1014 10 16 0.00 0.00
7:55 pm 19:55 Sunny 77 25 64 18 65 65 SE 8 13 29.91 1013 10 16 0.00 0.00
8:15 pm 20:15 Sunny 77 25 64 18 65 65 SE 9 15 29.94 1014 10 16 0.00 0.00
8:35 pm 20:35 Sunny 75 24 63 17 65 65 SE 7 11 29.94 1014 10 16 0.00 0.00
8:55 pm 20:55 Clear 75 24 63 17 65 65 ESE 6 9 30.00 1016 10 16 0.00 0.00
9:15 pm 21:15 Clear 75 24 64 18 69 69 ESE 6 9 30.00 1016 10 16 0.00 0.00
9:35 pm 21:35 Mostly Cloudy 73 23 64 18 74 74 ENE 6 9 30.03 1017 10 16 0.00 0.00
9:55 pm 21:55 Mostly Cloudy 72 22 66 19 83 83 E 7 11 30.03 1017 10 16 0.00 0.00
10:15 pm 22:15 Cloudy 72 22 64 18 78 78 S 10 17 30.03 1017 10 16 0.00 0.00
10:35 pm 22:35 Cloudy 72 22 64 18 78 78 SSW 14 22 30.03 1017 10 16 0.01 0.25
10:55 pm 22:55 Mostly Cloudy 72 22 63 17 73 73 S 28 44 29.91 1013 10 16 0.03 0.76
11:15 pm 23:15 Clear 72 22 63 17 73 73 S 30 48 29.91 1013 10 16 0.00 0.00
11:35 pm 23:35 Clear 73 23 61 16 65 65 SSW 16 26 29.94 1014 10 16 0.00 0.00
11:55 pm 23:55 Clear 73 23 61 16 65 65 S 17 28 29.97 1015 10 16 0.00 0.00

Powered by AerisWeather